Location: Sternwarte ZA, Rosenfeld-Brittheim
(48.2889°N, 8.6789°E)
Time: 05:59:15
(UTC+02:00)

ISS - Pass Details

Date: 18 September 2020
Orbit: 419 x 420 km, 51.6° (Epoch: 21 September)

Event Time Altitude Azimuth Distance (km) Brightness Sun altitude
Rises 21:36:55 0° 240° (WSW) 2,359 0.5 -20.9°
Reaches altitude 10° 21:39:01 10° 238° (WSW) 1,498 -0.6 -21.2°
Enters shadow 21:41:11 37° 228° (SW) 674 -2.6 -21.6°
